軌道要素
Epoch 2020 Sept. 28.0 TT = JDT 2459120.5
T 2020 Sept. 16.37832 TT Rudenko
q 2.6952830 (2000.0) P Q
n 0.07799196 Peri. 277.67315 +0.14161867 -0.98813346
a 5.4254550 Node 163.81700 +0.97138553 +0.12714529
e 0.5032153 Incl. 12.31997 +0.19066807 +0.08617624
P 12.6
From 221 observations 2007 Nov. 3-2021 Apr. 7, mean residual 0".9.
|